This demonstration page uses our WeatherBlox Daily Observations layout. Learn more.

Left ArrowRight Arrow

39.12711, -84.51439

Hourly Observations for September 27, 2016

Temp ( °F °C ) Dew Point ( °F °C ) Humidity (%) Winds ( mph kmh ) Pressure ( in mb ) Visibility ( mi km ) Precip ( " mm )
12:53 am 00:53 Clear 53 11.7 53 11.7 100 100 Calm 30.05 1018 10 16 0.00 0.00
1:53 am 01:53 Clear with Mist and Fog 51 10.6 51 10.6 100 100 Calm 30.04 1017 3 5 0.00 0.00
2:53 am 02:53 Clear 49 9.4 49 9.4 100 100 S 7 11 30.04 1017 10 16 0.00 0.00
3:53 am 03:53 Clear 48 8.9 48 8.9 100 100 S 7 11 30.03 1017 10 16 0.00 0.00
4:53 am 04:53 Clear 48 8.9 48 8.9 100 100 Calm 30.02 1017 10 16 0.00 0.00
5:46 am 05:46 Clear with Mist and Fog 46 8 46 8 100 100 Calm 30.03 1017 1 1 0.00 0.00
5:53 am 05:53 Clear with Mist and Fog 47 8.3 47 8.3 100 100 Calm 30.02 1017 1 2 0.00 0.00
5:58 am 05:58 Clear with Mist and Fog 48 8.9 48 8.9 100 100 Calm 30.03 1017 4 6 0.00 0.00
6:53 am 06:53 Clear with Patchy Fog 46 7.8 46 7.8 100 100 Calm 30.01 1016 9 14 0.00 0.00
7:53 am 07:53 Sunny with Patchy Fog 46 7.8 46 7.8 100 100 Calm 30.02 1017 10 16 0.00 0.00
8:53 am 08:53 Sunny with Patchy Fog 52 11.1 52 11.1 100 100 S 3 6 30.01 1016 10 16 0.00 0.00
9:53 am 09:53 Sunny 58 14.4 53 11.7 84 84 S 6 9 30.01 1016 10 16 0.00 0.00
10:53 am 10:53 Sunny 64 17.8 54 12.2 70 70 S 7 11 29.99 1016 10 16 0.00 0.00
11:53 am 11:53 Sunny 69 20.6 47 8.3 45 45 WSW 10 17 29.97 1015 10 16 0.00 0.00
12:53 pm 12:53 Sunny 71 21.7 46 7.8 41 41 WSW 16 26 29.95 1014 10 16 0.00 0.00
1:53 pm 13:53 Sunny 74 23.3 44 6.7 34 34 SW 15 24 29.92 1013 10 16 0.00 0.00
2:53 pm 14:53 Sunny 74 23.3 46 7.8 37 37 SW 15 24 29.89 1012 10 16 0.00 0.00
3:53 pm 15:53 Sunny 74 23.3 45 7.2 36 36 WSW 13 20 29.87 1011 10 16 0.00 0.00
4:53 pm 16:53 Sunny 74 23.3 45 7.2 36 36 W 13 20 29.85 1011 10 16 0.00 0.00
5:53 pm 17:53 Mostly Sunny 73 22.8 45 7.2 37 37 WSW 14 22 29.85 1011 10 16 0.00 0.00
6:53 pm 18:53 Mostly Sunny 71 21.7 46 7.8 41 41 SW 12 19 29.85 1011 10 16 0.00 0.00
7:53 pm 19:53 Mostly Clear 59 15 51 10.6 75 75 S 7 11 29.86 1011 10 16 0.00 0.00
8:53 pm 20:53 Clear 59 15 52 11.1 78 78 S 3 6 29.87 1012 10 16 0.00 0.00
9:53 pm 21:53 Clear 56 13.3 52 11.1 87 87 Calm 29.88 1012 10 16 0.00 0.00
10:53 pm 22:53 Partly Cloudy 56 13.3 52 11.1 87 87 Calm 29.88 1012 10 16 0.00 0.00
11:53 pm 23:53 Mostly Clear 56 13.3 52 11.1 87 87 NE 3 6 29.88 1012 10 16 0.00 0.00

Powered by AerisWeather